Preview of NWS' New Version of Forecast
This preview is not operational and should not be used for support decisions.

Regional Weather Roundup (RWR)

Issued by National Weather Service (NWS)

                            
000
ASUS43 KDMX 161906
RWRIA 

WEATHER ROUNDUP FOR IOWA
NATIONAL WEATHER SERVICE DES MOINES IA
100 PM CST SAT FEB 16 2019

NOTE: "FAIR" INDICATES FEW OR NO CLOUDS BELOW 12,000 FEET WITH NO
SIGNIFICANT WEATHER AND/OR OBSTRUCTIONS TO VISIBILITY.

* - THESE STATIONS ARE NOT NWS STATIONS...THUS NOT UNDER NWS
QUALITY CONTROL.  THEY ALSO DO NOT REPORT WEATHER SUCH 
AS PRECIPITATION OR FOG.  

IAZ001>003-012>014-020>022-031>034-043>046-162000-
   NORTHWEST IOWA
  
CITY           SKY/WX    TMP DP  RH WIND       PRES   REMARKS
CARROLL *      SUNNY     16  10  79 E9        30.00F WCI   4          
CHEROKEE *     SUNNY     17   9  70 SE7       30.00F WCI   7          
DENISON *      SUNNY     18   9  68 E6        30.01F WCI   9          
LE MARS *      SUNNY     16   9  73 SE9       29.98F WCI   4          
ORANGE CITY *  SUNNY     18  10  73 SE8       29.97F WCI   7          
SHELDON *      SUNNY     14  10  85 SE12      29.97F WCI   0          
SIOUX CITY     SUNNY     19   9  65 E10       29.98F WCI   7          
SPENCER        PTSUNNY   16   7  67 E9        29.99F WCI   4          
STORM LAKE *   SUNNY     14  10  85 SE9       29.97F WCI   2          
$$
 
IAZ055>058-069>071-079>083-090>094-162000-
   SOUTHWEST IOWA
  
CITY           SKY/WX    TMP DP  RH WIND       PRES   REMARKS
ATLANTIC *     CLOUDY    14   7  73 NE8       29.99F WCI   3          
AUDUBON *      SUNNY     18   9  68 CALM      30.00F                  
CLARINDA *     MOSUNNY   19   9  63 NE8       29.98F WCI   9          
COUNCIL BLFS * CLOUDY    14  10  85 E7        29.95F WCI   4          
CRESTON *      SUNNY     19   9  63 E9        29.98F WCI   9          
HARLAN  *      SUNNY     16   9  73 E9        29.98F WCI   4          
LAMONI         SUNNY     21   9  59 E7        29.96F WCI  12          
RED OAK *      CLOUDY    16   7  67 NE9       29.98F WCI   4          
SHENANDOAH *   CLOUDY    16   9  73 NE8       29.98F WCI   5          
$$
 
IAZ047>049-059>061-072>074-084-162000-
   CENTRAL IOWA
  
CITY           SKY/WX    TMP DP  RH WIND       PRES   REMARKS
AMES           SUNNY     16   6  65 E8        30.04F WCI   5          
ANKENY *       SUNNY     16   7  67 VRB5      30.06F WCI   9          
BOONE *        SUNNY     16   9  73 E7        30.01F WCI   6          
CHARITON *     SUNNY     19   9  63 E6        30.01F WCI  11          
DES MOINES     MOSUNNY   17   6  62 VRB6      30.03F WCI   9          
GRINNELL*      SUNNY     19   9  65 E6        30.05F WCI  11          
KNOXVILLE *    SUNNY     18   7  62 VRB6      30.03F WCI   9          
MARSHALLTOWN   SUNNY     15   8  73 E6        30.04F WCI   6          
NEWTON *       SUNNY     16   7  67 SE5       30.04F WCI   9          
PELLA *        SUNNY     19   7  58 SE6       30.06F WCI  11          
PERRY *        FAIR      16   8  68 CALM      30.03F                  
$$
 
IAZ004>006-015-016-023>025-035-036-162000-
   NORTH CENTRAL IOWA
  
CITY           SKY/WX    TMP DP  RH WIND       PRES   REMARKS
ALGONA *       MOSUNNY   18   9  68 E8        30.01F WCI   7          
CLARION *      SUNNY     18  10  73 SE7       30.03F WCI   8          
ESTHERVILLE    CLOUDY    12   7  80 E12       30.00F WCI  -2          
FORT DODGE *   SUNNY     19  10  68 E8        30.03F WCI   9          
MASON CITY     SUNNY     16  10  77 E8        30.05F WCI   5          
FOREST CITY *  PTSUNNY   19  10  68 E7        30.04F WCI  10          
IOWA FALLS *   FAIR      20  10  66 SE6       30.05F WCI  12          
$$

IAZ007>011-017>019-026>030-037>042-050>054-066-162000-
   NORTHEAST IOWA
  
CITY           SKY/WX    TMP DP  RH WIND       PRES   REMARKS
CEDAR RAPIDS   FAIR      19  11  70 E8        30.04F WCI   9          
CHARLES CITY * FAIR      18   9  68 SE6       30.05F WCI   9          
CLINTON *      PTSUNNY   28  18  66 SE12      30.08F WCI  18          
DECORAH *      FAIR      18  10  73 S6        30.05F WCI   9          
DUBUQUE        FAIR      21  11  65 CALM      30.06F                  
OELWEIN *      CLOUDY    19  12  73 SE8       30.05F WCI   9          
WATERLOO       FAIR      19  10  68 NE5       30.06F WCI  12          
$$
 
IAZ064-065-067-068-078-162000-
   EAST CENTRAL IOWA
  
CITY           SKY/WX    TMP DP  RH WIND       PRES   REMARKS
DAVENPORT      FAIR      25  16  68 E12       30.08F WCI  14          
IOWA CITY      FAIR      21   9  59 VRB5      30.08F WCI  15          
MT. PLEASANT * SUNNY     28  18  64 E9        30.04F WCI  20          
MUSCATINE *    FAIR      25  12  58 E7        30.08F WCI  17          
QUAD CITIES    PTSUNNY   27  18  69 E10       30.07F WCI  17          
$$
 
IAZ062-063-075>077-085>089-095>099-162000-
   SOUTHEAST IOWA
  
CITY           SKY/WX    TMP DP  RH WIND       PRES   REMARKS
BURLINGTON     SUNNY     26  14  60 E6        30.04F WCI  19          
FAIRFIELD *    SUNNY     23  12  63 VRB6      30.03F WCI  16          
KEOKUK *       SUNNY     27  14  59 E9        30.02F WCI  17          
OSKALOOSA *    FAIR      20   8  60 S3        30.06F                  
OTTUMWA        SUNNY     20  10  65 CALM      30.05F                  
WASHINGTON *   SUNNY     21  12  68 NE7       30.06F WCI  13          
$$

ABBREVIATIONS USED IN REMARKS
   TC - TEMPERATURES IN CELSIUS
  WCI - WIND CHILL INDEX
   HX - HEAT INDEX
  VSB - VISIBILITY  
$$